Location: Unspecified
(51.0950°N, 12.9690°E)
Time: 22:43:50
(UTC+00:00)

EO-79 - Pass Details

Date: 27 April 2024
Orbit: 562 x 575 km, 98.0° (Epoch: 28 May)

Event Time Altitude Azimuth Distance (km) Brightness Sun altitude
Rises 02:50:28 0° 10° (N) 2,801 ? -8.7°
Reaches altitude 10° 02:52:40 10° 7° (N) 1,899 ? -8.4°
Maximum altitude 02:56:41 55° 290° (WNW) 701 ? -7.9°
Drops below altitude 10° 03:00:41 10° 212° (SSW) 1,887 ? -7.4°
Enters shadow 03:01:23 - 210° (SSW) 2,173 ? -7.3°
